Time,TemperatureF,DewpointF,PressureIn,WindDirection,WindDirectionDegrees,WindSpeedMPH,WindSpeedGustMPH,Humidity,HourlyPrecipIn,Conditions,Clouds,dailyrainin,SolarRadiationWatts/m^2,SoftwareType,DateUTC
2013-02-11 00:00:00,55.5,51.7,29.88,WSW,240,6.0,9.0,87,0.00,RA,,0.00,0.0,WeatherDisplay:10.37,2013-02-11 06:00:00,
2013-02-11 00:10:00,55.2,51.0,29.88,WSW,238,5.0,9.0,86,0.00,CLR,,0.00,0.0,WeatherDisplay:10.37,2013-02-11 06:10:00,
2013-02-11 00:20:00,54.6,50.2,29.89,SW,232,6.0,9.0,85,0.00,CLR,,0.00,0.0,WeatherDisplay:10.37,2013-02-11 06:20:00,
2013-02-11 00:30:00,54.5,49.5,29.89,SW,236,8.0,12.0,83,0.00,CLR,,0.00,0.0,WeatherDisplay:10.37,2013-02-11 06:30:00,
2013-02-11 00:40:00,54.3,48.6,29.90,WSW,238,6.0,10.0,81,0.00,CLR,,0.00,0.0,WeatherDisplay:10.37,2013-02-11 06:40:00,
2013-02-11 00:50:00,53.7,48.1,29.90,SW,233,5.0,7.0,81,0.00,CLR,,0.00,0.0,WeatherDisplay:10.37,2013-02-11 06:50:00,
2013-02-11 01:00:00,53.2,47.5,29.90,SW,230,5.0,8.0,81,0.00,CLR,,0.00,0.0,WeatherDisplay:10.37,2013-02-11 07:00:00,
2013-02-11 01:10:00,52.8,46.8,29.91,SW,232,5.0,9.0,80,0.00,CLR,,0.00,0.0,WeatherDisplay:10.37,2013-02-11 07:10:00,
2013-02-11 01:20:00,52.8,45.8,29.91,SW,235,5.0,8.0,77,0.00,CLR,,0.00,0.0,WeatherDisplay:10.37,2013-02-11 07:20:00,
2013-02-11 01:30:00,52.9,45.2,29.92,WSW,248,5.0,12.0,75,0.00,CLR,,0.00,0.0,WeatherDisplay:10.37,2013-02-11 07:30:00,
2013-02-11 01:40:00,52.8,44.7,29.92,WSW,249,5.0,12.0,74,0.00,CLR,,0.00,0.0,WeatherDisplay:10.37,2013-02-11 07:40:00,
2013-02-11 01:50:00,52.3,42.8,29.93,WSW,254,7.0,12.0,70,0.00,CLR,,0.00,0.0,WeatherDisplay:10.37,2013-02-11 07:50:00,
2013-02-11 02:00:00,52.0,41.8,29.93,WSW,256,8.0,13.0,68,0.00,CLR,,0.00,0.0,WeatherDisplay:10.37,2013-02-11 08:00:00,
2013-02-11 02:10:00,51.7,40.7,29.94,WSW,251,6.0,12.0,66,0.00,CLR,,0.00,0.0,WeatherDisplay:10.37,2013-02-11 08:10:00,
2013-02-11 02:20:00,51.5,39.7,29.94,WSW,249,7.0,12.0,64,0.00,CLR,,0.00,0.0,WeatherDisplay:10.37,2013-02-11 08:20:00,
2013-02-11 02:30:00,51.1,38.1,29.94,WSW,243,7.0,13.0,61,0.00,CLR,,0.00,0.0,WeatherDisplay:10.37,2013-02-11 08:30:00,
2013-02-11 02:40:00,50.9,37.1,29.94,WSW,251,7.0,12.0,59,0.00,CLR,,0.00,0.0,WeatherDisplay:10.37,2013-02-11 08:40:00,
2013-02-11 02:50:00,50.6,35.5,29.94,WSW,244,6.0,12.0,56,0.00,CLR,,0.00,0.0,WeatherDisplay:10.37,2013-02-11 08:50:00,
2013-02-11 03:00:00,50.0,34.9,29.94,WSW,249,5.0,10.0,56,0.00,CLR,,0.00,0.0,WeatherDisplay:10.37,2013-02-11 09:00:00,
2013-02-11 03:10:00,49.1,35.8,29.95,WSW,241,6.0,8.0,60,0.00,CLR,,0.00,0.0,WeatherDisplay:10.37,2013-02-11 09:10:00,
2013-02-11 03:20:00,49.2,35.0,29.95,WSW,241,7.0,18.0,58,0.00,CLR,,0.00,0.0,WeatherDisplay:10.37,2013-02-11 09:20:00,
2013-02-11 03:30:00,48.9,35.2,29.96,WSW,249,6.0,12.0,59,0.00,CLR,,0.00,0.0,WeatherDisplay:10.37,2013-02-11 09:30:00,
2013-02-11 03:40:00,48.2,35.0,29.96,WSW,248,5.0,12.0,60,0.00,CLR,,0.00,0.0,WeatherDisplay:10.37,2013-02-11 09:40:00,
2013-02-11 03:50:00,48.0,34.8,29.97,WSW,248,7.0,13.0,60,0.00,CLR,,0.00,0.0,WeatherDisplay:10.37,2013-02-11 09:50:00,
2013-02-11 04:00:00,47.5,34.3,29.97,WSW,254,5.0,13.0,60,0.00,CLR,,0.00,0.0,WeatherDisplay:10.37,2013-02-11 10:00:00,
2013-02-11 04:10:00,47.0,34.7,29.98,WSW,251,5.0,12.0,62,0.00,CLR,,0.00,0.0,WeatherDisplay:10.37,2013-02-11 10:10:00,
2013-02-11 04:20:00,46.8,34.4,30.00,WSW,249,5.0,12.0,62,0.00,CLR,,0.00,0.0,WeatherDisplay:10.37,2013-02-11 10:20:00,
2013-02-11 04:30:00,46.6,33.4,30.00,WSW,253,7.0,13.0,60,0.00,CLR,,0.00,0.0,WeatherDisplay:10.37,2013-02-11 10:30:00,
2013-02-11 04:40:00,45.9,33.6,30.00,WSW,257,3.0,10.0,62,0.00,CLR,,0.00,0.0,WeatherDisplay:10.37,2013-02-11 10:40:00,
2013-02-11 04:50:00,45.4,33.6,30.00,WSW,247,5.0,8.0,63,0.00,CLR,,0.00,0.0,WeatherDisplay:10.37,2013-02-11 10:50:00,
2013-02-11 05:00:00,45.2,33.3,30.00,WSW,252,2.0,6.0,63,0.00,CLR,,0.00,0.0,WeatherDisplay:10.37,2013-02-11 11:00:00,
2013-02-11 05:10:00,44.4,33.0,30.01,WSW,251,1.0,3.0,64,0.00,CLR,,0.00,0.0,WeatherDisplay:10.37,2013-02-11 11:10:00,
2013-02-11 05:20:00,43.9,32.9,30.01,West,272,2.0,6.0,65,0.00,CLR,,0.00,0.0,WeatherDisplay:10.37,2013-02-11 11:20:00,
2013-02-11 05:30:00,43.7,31.9,30.02,West,261,3.0,8.0,63,0.00,CLR,,0.00,0.0,WeatherDisplay:10.37,2013-02-11 11:30:00,
2013-02-11 05:40:00,43.3,31.5,30.03,West,260,3.0,10.0,63,0.00,CLR,,0.00,0.0,WeatherDisplay:10.37,2013-02-11 11:40:00,
2013-02-11 05:50:00,43.0,31.6,30.04,WSW,251,5.0,8.0,64,0.00,CLR,,0.00,0.0,WeatherDisplay:10.37,2013-02-11 11:50:00,
2013-02-11 06:00:00,42.6,31.7,30.05,WSW,248,5.0,8.0,65,0.00,CLR,,0.00,0.0,WeatherDisplay:10.37,2013-02-11 12:00:00,
2013-02-11 06:10:00,42.4,31.5,30.06,WSW,249,5.0,9.0,65,0.00,CLR,,0.00,0.0,WeatherDisplay:10.37,2013-02-11 12:10:00,
2013-02-11 06:20:00,42.3,31.4,30.06,WSW,251,5.0,7.0,65,0.00,CLR,,0.00,0.0,WeatherDisplay:10.37,2013-02-11 12:20:00,
2013-02-11 06:30:00,41.9,31.0,30.06,WSW,254,5.0,8.0,65,0.00,CLR,,0.00,0.0,WeatherDisplay:10.37,2013-02-11 12:30:00,
2013-02-11 06:40:00,41.4,30.8,30.06,WSW,258,2.0,7.0,66,0.00,CLR,,0.00,0.0,WeatherDisplay:10.37,2013-02-11 12:40:00,
2013-02-11 06:50:00,40.8,30.7,30.06,West,260,2.0,5.0,67,0.00,CLR,,0.00,0.0,WeatherDisplay:10.37,2013-02-11 12:50:00,
2013-02-11 07:00:00,40.4,30.7,30.06,WSW,256,2.0,5.0,68,0.00,CLR,,0.00,0.0,WeatherDisplay:10.37,2013-02-11 13:00:00,
2013-02-11 07:10:00,40.0,30.6,30.07,West,269,1.0,5.0,69,0.00,CLR,,0.00,0.0,WeatherDisplay:10.37,2013-02-11 13:10:00,
2013-02-11 07:20:00,39.5,30.5,30.07,WSW,258,1.0,2.0,70,0.00,CLR,,0.00,0.0,WeatherDisplay:10.37,2013-02-11 13:20:00,
2013-02-11 07:30:00,39.8,30.5,30.07,WSW,251,1.0,3.0,69,0.00,CLR,,0.00,0.0,WeatherDisplay:10.37,2013-02-11 13:30:00,
2013-02-11 07:40:00,39.4,30.8,30.08,SW,232,2.0,4.0,71,0.00,CLR,,0.00,0.0,WeatherDisplay:10.37,2013-02-11 13:40:00,
2013-02-11 07:50:00,39.4,31.1,30.09,SW,228,2.0,4.0,72,0.00,CLR,,0.00,0.0,WeatherDisplay:10.37,2013-02-11 13:50:00,
2013-02-11 08:00:00,39.7,31.1,30.09,SW,221,2.0,4.0,71,0.00,CLR,,0.00,0.0,WeatherDisplay:10.37,2013-02-11 14:00:00,
2013-02-11 08:10:00,40.6,32.3,30.10,SW,232,2.0,4.0,72,0.00,CLR,,0.00,0.0,WeatherDisplay:10.37,2013-02-11 14:10:00,
2013-02-11 08:20:00,41.8,32.7,30.10,SW,222,3.0,6.0,70,0.00,CLR,,0.00,0.0,WeatherDisplay:10.37,2013-02-11 14:20:00,
2013-02-11 08:30:00,42.4,32.9,30.10,SW,228,3.0,6.0,69,0.00,CLR,,0.00,0.0,WeatherDisplay:10.37,2013-02-11 14:30:00,
2013-02-11 08:40:00,42.6,32.8,30.10,SW,222,3.0,7.0,68,0.00,CLR,,0.00,0.0,WeatherDisplay:10.37,2013-02-11 14:40:00,
2013-02-11 08:50:00,42.6,33.5,30.10,SW,228,3.0,8.0,70,0.00,CLR,,0.00,0.0,WeatherDisplay:10.37,2013-02-11 14:50:00,
2013-02-11 09:00:00,43.0,33.2,30.12,SW,215,5.0,7.0,68,0.00,CLR,,0.00,0.0,WeatherDisplay:10.37,2013-02-11 15:00:00,
2013-02-11 09:10:00,43.1,33.6,30.12,SW,226,5.0,8.0,69,0.00,CLR,,0.00,0.0,WeatherDisplay:10.37,2013-02-11 15:10:00,
2013-02-11 09:20:00,43.5,33.3,30.12,SW,228,3.0,6.0,67,0.00,CLR,,0.00,0.0,WeatherDisplay:10.37,2013-02-11 15:20:00,
2013-02-11 09:30:00,44.0,33.4,30.11,SW,225,6.0,8.0,66,0.00,CLR,,0.00,0.0,WeatherDisplay:10.37,2013-02-11 15:30:00,
2013-02-11 09:40:00,44.6,33.5,30.12,WSW,239,3.0,9.0,65,0.00,CLR,,0.00,0.0,WeatherDisplay:10.37,2013-02-11 15:40:00,
2013-02-11 09:50:00,45.5,33.2,30.13,WSW,240,5.0,9.0,62,0.00,CLR,,0.00,0.0,WeatherDisplay:10.37,2013-02-11 15:50:00,
2013-02-11 10:00:00,46.5,32.5,30.12,WSW,252,3.0,9.0,58,0.00,CLR,,0.00,0.0,WeatherDisplay:10.37,2013-02-11 16:00:00,
2013-02-11 10:10:00,46.4,31.5,30.12,WSW,246,5.0,10.0,56,0.00,CLR,,0.00,0.0,WeatherDisplay:10.37,2013-02-11 16:10:00,
2013-02-11 10:20:00,46.8,31.5,30.12,West,273,3.0,7.0,55,0.00,CLR,,0.00,0.0,WeatherDisplay:10.37,2013-02-11 16:20:00,
2013-02-11 10:30:00,47.8,33.2,30.13,WSW,250,5.0,8.0,57,0.00,CLR,,0.00,0.0,WeatherDisplay:10.37,2013-02-11 16:30:00,
2013-02-11 10:40:00,47.7,30.9,30.13,West,270,3.0,10.0,52,0.00,CLR,,0.00,0.0,WeatherDisplay:10.37,2013-02-11 16:40:00,
2013-02-11 10:50:00,48.1,32.7,30.14,WSW,239,6.0,10.0,55,0.00,CLR,,0.00,0.0,WeatherDisplay:10.37,2013-02-11 16:50:00,
2013-02-11 11:00:00,48.5,31.2,30.14,WSW,251,3.0,10.0,51,0.00,CLR,,0.00,0.0,WeatherDisplay:10.37,2013-02-11 17:00:00,
2013-02-11 11:10:00,49.3,31.9,30.14,WSW,248,5.0,7.0,51,0.00,CLR,,0.00,0.0,WeatherDisplay:10.37,2013-02-11 17:10:00,
2013-02-11 11:20:00,50.0,32.1,30.14,West,262,2.0,8.0,50,0.00,CLR,,0.00,0.0,WeatherDisplay:10.37,2013-02-11 17:20:00,
2013-02-11 11:30:00,49.7,32.8,30.13,SW,231,8.0,12.0,52,0.00,CLR,,0.00,0.0,WeatherDisplay:10.37,2013-02-11 17:30:00,
2013-02-11 11:40:00,49.2,31.8,30.13,SW,235,3.0,12.0,51,0.00,CLR,,0.00,0.0,WeatherDisplay:10.37,2013-02-11 17:40:00,
2013-02-11 11:50:00,49.3,30.4,30.13,WSW,255,2.0,8.0,48,0.00,CLR,,0.00,0.0,WeatherDisplay:10.37,2013-02-11 17:50:00,
2013-02-11 12:00:00,49.8,31.9,30.13,WSW,243,6.0,9.0,50,0.00,CLR,,0.00,0.0,WeatherDisplay:10.37,2013-02-11 18:00:00,
2013-02-11 12:10:00,50.2,31.8,30.13,WSW,247,2.0,9.0,49,0.00,CLR,,0.00,0.0,WeatherDisplay:10.37,2013-02-11 18:10:00,
2013-02-11 12:20:00,50.3,31.4,30.14,West,261,2.0,9.0,48,0.00,CLR,,0.00,0.0,WeatherDisplay:10.37,2013-02-11 18:20:00,
2013-02-11 12:30:00,51.0,32.0,30.13,WSW,239,5.0,10.0,48,0.00,CLR,,0.00,0.0,WeatherDisplay:10.37,2013-02-11 18:30:00,
2013-02-11 12:40:00,51.3,31.7,30.12,WSW,240,3.0,9.0,47,0.00,CLR,,0.00,0.0,WeatherDisplay:10.37,2013-02-11 18:40:00,
2013-02-11 12:50:00,51.8,29.4,30.12,WSW,242,3.0,12.0,42,0.00,CLR,,0.00,0.0,WeatherDisplay:10.37,2013-02-11 18:50:00,
2013-02-11 13:00:00,51.8,31.7,30.12,SW,227,6.0,12.0,46,0.00,CLR,,0.00,0.0,WeatherDisplay:10.37,2013-02-11 19:00:00,
2013-02-11 13:10:00,52.5,30.6,30.11,West,262,3.0,10.0,43,0.00,CLR,,0.00,0.0,WeatherDisplay:10.37,2013-02-11 19:10:00,
2013-02-11 13:20:00,52.6,31.9,30.11,WSW,257,3.0,7.0,45,0.00,CLR,,0.00,0.0,WeatherDisplay:10.37,2013-02-11 19:20:00,
2013-02-11 13:30:00,53.7,31.7,30.11,West,264,3.0,10.0,43,0.00,CLR,,0.00,0.0,WeatherDisplay:10.37,2013-02-11 19:30:00,
2013-02-11 13:40:00,53.3,30.7,30.11,West,280,5.0,12.0,42,0.00,CLR,,0.00,0.0,WeatherDisplay:10.37,2013-02-11 19:40:00,
2013-02-11 13:50:00,53.3,30.2,30.11,West,266,7.0,12.0,41,0.00,CLR,,0.00,0.0,WeatherDisplay:10.37,2013-02-11 19:50:00,
2013-02-11 14:00:00,53.0,31.1,30.10,WSW,251,2.0,10.0,43,0.00,CLR,,0.00,0.0,WeatherDisplay:10.37,2013-02-11 20:00:00,
2013-02-11 14:10:00,53.9,30.7,30.11,WNW,295,5.0,10.0,41,0.00,CLR,,0.00,0.0,WeatherDisplay:10.37,2013-02-11 20:10:00,
2013-02-11 14:20:00,53.6,31.6,30.11,WNW,283,5.0,12.0,43,0.00,CLR,,0.00,0.0,WeatherDisplay:10.37,2013-02-11 20:20:00,
2013-02-11 14:30:00,53.5,32.7,30.10,West,268,5.0,13.0,45,0.00,CLR,,0.00,0.0,WeatherDisplay:10.37,2013-02-11 20:30:00,
2013-02-11 14:40:00,52.6,30.7,30.10,WNW,300,2.0,10.0,43,0.00,CLR,,0.00,0.0,WeatherDisplay:10.37,2013-02-11 20:40:00,
2013-02-11 14:50:00,53.1,31.2,30.09,WNW,289,7.0,9.0,43,0.00,CLR,,0.00,0.0,WeatherDisplay:10.37,2013-02-11 20:50:00,
2013-02-11 15:00:00,53.6,32.2,30.09,West,268,5.0,12.0,44,0.00,CLR,,0.00,0.0,WeatherDisplay:10.37,2013-02-11 21:00:00,
2013-02-11 15:10:00,53.6,31.0,30.10,WSW,250,3.0,12.0,42,0.00,CLR,,0.00,0.0,WeatherDisplay:10.37,2013-02-11 21:10:00,
2013-02-11 15:20:00,53.8,31.8,30.09,WSW,256,3.0,10.0,43,0.00,CLR,,0.00,0.0,WeatherDisplay:10.37,2013-02-11 21:20:00,
2013-02-11 15:30:00,53.1,31.7,30.09,West,281,2.0,12.0,44,0.00,CLR,,0.00,0.0,WeatherDisplay:10.37,2013-02-11 21:30:00,
2013-02-11 15:40:00,53.4,32.0,30.09,WNW,288,3.0,6.0,44,0.00,CLR,,0.00,0.0,WeatherDisplay:10.37,2013-02-11 21:40:00,
2013-02-11 15:50:00,52.7,33.6,30.10,WSW,249,5.0,10.0,48,0.00,CLR,,0.00,0.0,WeatherDisplay:10.37,2013-02-11 21:50:00,
2013-02-11 16:00:00,53.1,33.4,30.10,West,262,3.0,8.0,47,0.00,CLR,,0.00,0.0,WeatherDisplay:10.37,2013-02-11 22:00:00,
2013-02-11 16:10:00,53.4,32.0,30.09,West,277,3.0,9.0,44,0.00,CLR,,0.00,0.0,WeatherDisplay:10.37,2013-02-11 22:10:00,
2013-02-11 16:20:00,52.8,33.1,30.08,West,272,2.0,6.0,47,0.00,CLR,,0.00,0.0,WeatherDisplay:10.37,2013-02-11 22:20:00,
2013-02-11 16:30:00,53.2,33.5,30.09,WSW,255,3.0,6.0,47,0.00,CLR,,0.00,0.0,WeatherDisplay:10.37,2013-02-11 22:30:00,
2013-02-11 16:40:00,52.5,32.8,30.09,WSW,255,5.0,7.0,47,0.00,CLR,,0.00,0.0,WeatherDisplay:10.37,2013-02-11 22:40:00,
2013-02-11 16:50:00,52.1,33.5,30.09,West,263,1.0,5.0,49,0.00,CLR,,0.00,0.0,WeatherDisplay:10.37,2013-02-11 22:50:00,
2013-02-11 17:00:00,50.7,32.7,30.09,WSW,247,2.0,5.0,50,0.00,CLR,,0.00,0.0,WeatherDisplay:10.37,2013-02-11 23:00:00,
2013-02-11 17:10:00,49.7,33.7,30.09,WSW,239,0.0,3.0,54,0.00,CLR,,0.00,0.0,WeatherDisplay:10.37,2013-02-11 23:10:00,
2013-02-11 17:20:00,48.9,33.9,30.09,SSW,197,1.0,4.0,56,0.00,CLR,,0.00,0.0,WeatherDisplay:10.37,2013-02-11 23:20:00,
2013-02-11 17:30:00,48.2,34.5,30.09,South,181,0.0,1.0,59,0.00,CLR,,0.00,0.0,WeatherDisplay:10.37,2013-02-11 23:30:00,
2013-02-11 17:40:00,47.6,34.0,30.09,South,181,0.0,1.0,59,0.00,CLR,,0.00,0.0,WeatherDisplay:10.37,2013-02-11 23:40:00,
2013-02-11 17:50:00,47.2,33.6,30.10,South,181,1.0,1.0,59,0.00,CLR,,0.00,0.0,WeatherDisplay:10.37,2013-02-11 23:50:00,
2013-02-11 18:00:00,46.7,33.5,30.10,SW,214,0.0,1.0,60,0.00,CLR,,0.00,0.0,WeatherDisplay:10.37,2013-02-12 00:00:00,
2013-02-11 18:10:00,45.9,34.0,30.09,SW,215,0.0,0.0,63,0.00,CLR,,0.00,0.0,WeatherDisplay:10.37,2013-02-12 00:10:00,
2013-02-11 18:20:00,45.5,33.2,30.09,SW,215,0.0,0.0,62,0.00,CLR,,0.00,0.0,WeatherDisplay:10.37,2013-02-12 00:20:00,
2013-02-11 18:30:00,45.3,33.8,30.09,SW,215,0.0,1.0,64,0.00,CLR,,0.00,0.0,WeatherDisplay:10.37,2013-02-12 00:30:00,
2013-02-11 18:40:00,44.9,33.5,30.10,SW,215,1.0,1.0,64,0.00,CLR,,0.00,0.0,WeatherDisplay:10.37,2013-02-12 00:40:00,
2013-02-11 18:50:00,44.8,33.4,30.10,SW,215,0.0,1.0,64,0.00,CLR,,0.00,0.0,WeatherDisplay:10.37,2013-02-12 00:50:00,
2013-02-11 19:00:00,44.6,33.5,30.11,SW,215,0.0,0.0,65,0.00,CLR,,0.00,0.0,WeatherDisplay:10.37,2013-02-12 01:00:00,
2013-02-11 19:10:00,44.3,33.6,30.11,SW,215,0.0,0.0,66,0.00,CLR,,0.00,0.0,WeatherDisplay:10.37,2013-02-12 01:10:00,
2013-02-11 19:20:00,44.2,33.6,30.11,SW,215,0.0,1.0,66,0.00,CLR,,0.00,0.0,WeatherDisplay:10.37,2013-02-12 01:20:00,
2013-02-11 19:30:00,43.9,33.6,30.11,SW,215,0.0,0.0,67,0.00,CLR,,0.00,0.0,WeatherDisplay:10.37,2013-02-12 01:30:00,
2013-02-11 19:40:00,44.0,33.8,30.11,South,180,0.0,0.0,67,0.00,CLR,,0.00,0.0,WeatherDisplay:10.37,2013-02-12 01:40:00,
2013-02-11 19:50:00,43.7,33.9,30.11,SSE,153,0.0,1.0,68,0.00,CLR,,0.00,0.0,WeatherDisplay:10.37,2013-02-12 01:50:00,
2013-02-11 20:00:00,43.2,34.1,30.11,SE,134,0.0,1.0,70,0.00,CLR,,0.00,0.0,WeatherDisplay:10.37,2013-02-12 02:00:00,
2013-02-11 20:10:00,42.8,34.0,30.11,SE,134,0.0,1.0,71,0.00,CLR,,0.00,0.0,WeatherDisplay:10.37,2013-02-12 02:10:00,
2013-02-11 20:20:00,42.5,33.8,30.12,SE,134,0.0,1.0,71,0.00,CLR,,0.00,0.0,WeatherDisplay:10.37,2013-02-12 02:20:00,
2013-02-11 20:30:00,42.2,33.8,30.13,SE,134,0.0,1.0,72,0.00,CLR,,0.00,0.0,WeatherDisplay:10.37,2013-02-12 02:30:00,
2013-02-11 20:40:00,41.8,33.8,30.13,SE,134,0.0,1.0,73,0.00,CLR,,0.00,0.0,WeatherDisplay:10.37,2013-02-12 02:40:00,
2013-02-11 20:50:00,41.5,33.9,30.13,SE,136,1.0,2.0,74,0.00,CLR,,0.00,0.0,WeatherDisplay:10.37,2013-02-12 02:50:00,
2013-02-11 21:00:00,41.7,34.0,30.13,SE,142,0.0,1.0,74,0.00,CLR,,0.00,0.0,WeatherDisplay:10.37,2013-02-12 03:00:00,
2013-02-11 21:10:00,41.5,33.8,30.13,SE,142,0.0,1.0,74,0.00,CLR,,0.00,0.0,WeatherDisplay:10.37,2013-02-12 03:10:00,
2013-02-11 21:20:00,41.4,33.7,30.14,SE,142,0.0,1.0,74,0.00,CLR,,0.00,0.0,WeatherDisplay:10.37,2013-02-12 03:20:00,
2013-02-11 21:30:00,40.8,33.8,30.14,SE,142,0.0,1.0,76,0.00,CLR,,0.00,0.0,WeatherDisplay:10.37,2013-02-12 03:30:00,
2013-02-11 21:40:00,40.5,33.9,30.12,SE,142,0.0,1.0,77,0.00,CLR,,0.00,0.0,WeatherDisplay:10.37,2013-02-12 03:40:00,
2013-02-11 21:50:00,40.6,33.3,30.13,SE,142,0.0,0.0,75,0.00,CLR,,0.00,0.0,WeatherDisplay:10.37,2013-02-12 03:50:00,
2013-02-11 22:00:00,39.9,33.3,30.13,SE,142,0.0,0.0,77,0.00,CLR,,0.00,0.0,WeatherDisplay:10.37,2013-02-12 04:00:00,
2013-02-11 22:10:00,40.0,33.4,30.13,SE,142,0.0,0.0,77,0.00,CLR,,0.00,0.0,WeatherDisplay:10.37,2013-02-12 04:10:00,
2013-02-11 22:20:00,39.5,33.2,30.13,SE,142,0.0,1.0,78,0.00,CLR,,0.00,0.0,WeatherDisplay:10.37,2013-02-12 04:20:00,
2013-02-11 22:30:00,39.9,33.6,30.13,SE,142,0.0,1.0,78,0.00,CLR,,0.00,0.0,WeatherDisplay:10.37,2013-02-12 04:30:00,
2013-02-11 22:40:00,39.7,33.4,30.14,SE,141,0.0,0.0,78,0.00,CLR,,0.00,0.0,WeatherDisplay:10.37,2013-02-12 04:40:00,
2013-02-11 22:50:00,39.6,33.3,30.14,SE,141,0.0,1.0,78,0.00,CLR,,0.00,0.0,WeatherDisplay:10.37,2013-02-12 04:50:00,
2013-02-11 23:00:00,39.1,33.2,30.14,SE,138,0.0,1.0,79,0.00,CLR,,0.00,0.0,WeatherDisplay:10.37,2013-02-12 05:00:00,
2013-02-11 23:10:00,39.2,33.5,30.13,SE,138,0.0,1.0,80,0.00,CLR,,0.00,0.0,WeatherDisplay:10.37,2013-02-12 05:10:00,
2013-02-11 23:20:00,39.1,33.5,30.13,SE,138,0.0,0.0,80,0.00,CLR,,0.00,0.0,WeatherDisplay:10.37,2013-02-12 05:20:00,
2013-02-11 23:30:00,39.0,33.3,30.13,SE,138,0.0,0.0,80,0.00,CLR,,0.00,0.0,WeatherDisplay:10.37,2013-02-12 05:30:00,
2013-02-11 23:40:00,38.9,33.3,30.13,SE,138,0.0,1.0,80,0.00,CLR,,0.00,0.0,WeatherDisplay:10.37,2013-02-12 05:40:00,
2013-02-11 23:50:00,38.6,33.3,30.13,SE,138,1.0,1.0,81,0.00,CLR,,0.00,0.0,WeatherDisplay:10.37,2013-02-12 05:50:00,